Location: Paderno d�Adda
(45.6667°N, 9.4333°E)
Time: 14:42:48
(UTC+00:00)

USA 116 - Pass Details

Date: 19 September 2020
Orbit: 405 x 834 km, 97.9° (Epoch: 18 November)

Event Time Altitude Azimuth Distance (km) Brightness Sun altitude
Rises 18:30:03 0° 8° (N) 2,446 7.1 -12.1°
Reaches altitude 10° 18:32:00 10° 4° (N) 1,612 6.2 -12.4°
Maximum altitude 18:35:22 56° 286° (WNW) 594 4.3 -13.0°
Drops below altitude 10° 18:39:06 10° 208° (SSW) 1,785 6.5 -13.6°
Sets 18:41:22 0° 204° (SSW) 2,742 7.4 -14.0°
